Montpelier, VT

11:42 AM EDT on April 20, 2018 (GMT -0400)
Knapp State

Weather History for KMPV - November, 2010

Change the Weather History Date:

Tuesday, November 9, 2010

  Actual Average Record
Temperature  
Mean Temperature 36 °F 38 °F  
Max Temperature 41 °F 47 °F 69 °F (2009)
Min Temperature 32 °F 29 °F 10 °F (1971)
Degree Days  
Heating Degree Days 28 27  
Month to date heating degree days 232  
Since 1 July heating degree days 1188  
Cooling Degree Days 0 0  
Month to date cooling degree days 0  
Year to date cooling degree days 264  
Moisture  
Dew Point 35 °F    
Average Humidity 94    
Maximum Humidity 100    
Minimum Humidity 86    
Precipitation  
Precipitation 0.01 in 0.10 in 1.18 in (1996)
Month to date precipitation 0.98  
Year to date precipitation 32.34  
Sea Level Pressure  
Sea Level Pressure 30.02 in    
Wind  
Wind Speed 6 mph (NW)    
Max Wind Speed 9 mph    
Max Gust Speed -    
Visibility 8 miles    
Events Rain    
T = Trace of Precipitation, MM = Missing Value Source: NWS Daily Summary

Daily Weather History Graph

Daily Weather History Graph

Search for Another Location

Airport or City:

Astronomy

Nov. 09, 2010 Rise Set
Actual Time 6:37 AM EST 4:29 PM EST
Civil Twilight 6:06 AM EST 5:00 PM EST
Nautical Twilight 5:32 AM EST 5:35 PM EST
Astronomical Twilight 4:58 AM EST 6:09 PM EST
Moon 10:21 AM EST (11/9) 7:19 PM EST (11/9)
Length of Visible Light 10h 53m
Length of Day
9h 52m
Waxing Crescent, 14% of the Moon is Illuminated
Nov 9
Waxing Crescent
Nov 13
First Quarter
Nov 21
Full
Nov 28
Last Quarter
Dec 5
New

Hourly Weather History & Observations

Time (EST) Temp. Windchill Dew Point Humidity Pressure Visibility Wind Dir Wind Speed Gust Speed Precip Events Conditions
12:51 AM 33.1 °F 30.0 °F 32.0 °F 96% 29.91 in 10.0 mi WNW 3.5 mph - N/A   Overcast
1:07 AM 33.8 °F 29.6 °F 30.2 °F 87% 29.87 in 8.0 mi NW 4.6 mph - N/A   Overcast
1:51 AM 33.1 °F - 32.0 °F 96% 29.92 in 7.0 mi North - - N/A   Overcast
2:51 AM 32.0 °F - 30.9 °F 96% 29.93 in 4.0 mi North - - 0.00 in   Overcast
3:51 AM 33.1 °F - 32.0 °F 96% 29.94 in 10.0 mi North - - N/A   Overcast
4:51 AM 33.1 °F - 32.0 °F 96% 29.96 in 10.0 mi North - - N/A   Overcast
5:35 AM 33.8 °F - 32.0 °F 93% 29.92 in 10.0 mi North - - N/A   Overcast
5:51 AM 33.1 °F - 32.0 °F 96% 29.97 in 10.0 mi North - - N/A   Overcast
5:58 AM 33.8 °F - 32.0 °F 93% 29.93 in 10.0 mi North - - N/A   Overcast
6:36 AM 33.8 °F - 32.0 °F 93% 29.94 in 8.0 mi North - - N/A   Overcast
6:51 AM 33.1 °F - 32.0 °F 96% 29.98 in 9.0 mi North - - N/A   Overcast
7:37 AM 33.8 °F 28.6 °F 33.8 °F 100% 29.96 in 1.8 mi WNW 5.8 mph - N/A   Overcast
7:47 AM 33.8 °F 29.6 °F 33.8 °F 100% 29.96 in 3.0 mi NW 4.6 mph - N/A   Overcast
7:51 AM 34.0 °F 28.8 °F 33.1 °F 96% 30.01 in 4.0 mi WNW 5.8 mph - N/A   Overcast
8:51 AM 35.1 °F 31.0 °F 34.0 °F 96% 30.02 in 8.0 mi WNW 4.6 mph - N/A   Overcast
9:51 AM 37.0 °F 31.0 °F 36.0 °F 96% 30.03 in 9.0 mi NNW 8.1 mph - N/A   Overcast
10:05 AM 37.4 °F 31.4 °F 35.6 °F 93% 29.99 in 10.0 mi NNW 8.1 mph - N/A   Overcast
10:23 AM 37.4 °F 32.1 °F 35.6 °F 93% 29.99 in 10.0 mi NNW 6.9 mph - N/A   Overcast
10:51 AM 39.0 °F 32.8 °F 37.0 °F 93% 30.03 in 10.0 mi NW 9.2 mph - N/A   Overcast
11:51 AM 39.0 °F 34.0 °F 37.0 °F 93% 30.03 in 10.0 mi NW 6.9 mph - N/A   Overcast
12:31 PM 39.2 °F 34.2 °F 37.4 °F 93% 29.99 in 10.0 mi NNW 6.9 mph - N/A   Overcast
12:51 PM 41.0 °F 35.8 °F 37.9 °F 89% 30.03 in 10.0 mi NNW 8.1 mph - N/A   Overcast
1:51 PM 39.9 °F 35.8 °F 37.9 °F 93% 30.03 in 10.0 mi NW 5.8 mph - N/A   Overcast
2:51 PM 39.9 °F 35.1 °F 37.9 °F 93% 30.05 in 10.0 mi NNW 6.9 mph - N/A   Overcast
3:51 PM 39.9 °F 35.8 °F 37.9 °F 93% 30.07 in 7.0 mi NW 5.8 mph - 0.00 in Rain Light Rain
4:51 PM 39.9 °F 33.9 °F 37.9 °F 93% 30.08 in 10.0 mi NNW 9.2 mph - 0.00 in   Overcast
5:26 PM 39.2 °F 34.2 °F 37.4 °F 93% 30.05 in 9.0 mi NNW 6.9 mph - 0.01 in Rain Light Rain
5:51 PM 39.9 °F 34.5 °F 37.9 °F 93% 30.09 in 9.0 mi WNW 8.1 mph - 0.01 in   Overcast
6:00 PM 39.2 °F 35.0 °F 37.4 °F 93% 30.07 in 8.0 mi NNW 5.8 mph - N/A   Overcast
6:22 PM 39.2 °F 34.2 °F 37.4 °F 93% 30.06 in 7.0 mi NW 6.9 mph - N/A   Overcast
6:47 PM 39.2 °F 35.0 °F 37.4 °F 93% 30.07 in 9.0 mi NNW 5.8 mph - N/A   Overcast
6:51 PM 39.9 °F 35.8 °F 37.9 °F 93% 30.10 in 9.0 mi NNW 5.8 mph - N/A   Overcast
7:07 PM 39.2 °F 35.9 °F 37.4 °F 93% 30.07 in 9.0 mi NNW 4.6 mph - N/A   Overcast
7:38 PM 39.2 °F 35.0 °F 37.4 °F 93% 30.07 in 7.0 mi NNW 5.8 mph - N/A   Overcast
7:51 PM 39.0 °F 34.8 °F 37.0 °F 93% 30.11 in 6.0 mi NW 5.8 mph - N/A   Overcast
8:02 PM 39.2 °F 37.0 °F 37.4 °F 93% 30.07 in 6.0 mi NW 3.5 mph - N/A   Overcast
8:20 PM 39.2 °F 34.2 °F 37.4 °F 93% 30.07 in 7.0 mi NW 6.9 mph - N/A   Overcast
8:51 PM 39.0 °F 35.7 °F 37.9 °F 96% 30.12 in 7.0 mi NNW 4.6 mph - N/A   Overcast
9:51 PM 39.0 °F 35.7 °F 37.0 °F 93% 30.13 in 10.0 mi NNW 4.6 mph - N/A   Overcast
10:23 PM 39.2 °F 35.0 °F 37.4 °F 93% 30.09 in 10.0 mi NNW 5.8 mph - N/A   Overcast
10:51 PM 39.9 °F 35.8 °F 36.0 °F 86% 30.13 in 10.0 mi NNW 5.8 mph - N/A   Overcast
11:51 PM 39.0 °F 36.8 °F 36.0 °F 89% 30.14 in 10.0 mi North 3.5 mph - 0.00 in Rain Light Rain